Overview Statistics Trail Chart Weather Telemetry Raw packets
 

This is the latest recevied weather packets stored in our database for station/object KD7AWQ. If no packets are shown the sender has not sent any weather packets the latest 10 day(s).

<< 59 60 61 62 63 64 65 >>
Time Temp. Humidity Pressure Rain* Wind** Luminosity Snow
1788014702 30° C 30% 1189.7 hPa 0 mm - 76 W/m² -
1788014397 30° C 29% 1189.6 hPa 0 mm - 249 W/m² -
1788014092 30.56° C 28% 1189.6 hPa 0 mm - 227 W/m² -
1788013791 30.56° C 28% 1189.6 hPa 0 mm - 207 W/m² -
1788013486 31.11° C 29% 1189.7 hPa 0 mm - 188 W/m² -
1788013186 30.56° C 30% 1189.5 hPa 0 mm - 170 W/m² -
1788012885 30.56° C 29% 1189.5 hPa 0 mm - 153 W/m² -
1788012579 30° C 30% 1189.3 hPa 0 mm - 135 W/m² -
1788012275 29.44° C 31% 1189.2 hPa 0 mm - 120 W/m² -
1788011973 28.89° C 33% 1188.9 hPa 0 mm - 106 W/m² -
1788011673 28.33° C 33% 1189.1 hPa 0 mm - 93 W/m² -
1788011369 27.22° C 34% 1188.8 hPa 0 mm - 79 W/m² -
1788011068 27.22° C 35% 1189.1 hPa 0 mm - 68 W/m² -
1788010763 26.67° C 36% 1189 hPa 0 mm - 59 W/m² -
1788010461 26.67° C 36% 1189.5 hPa 0 mm - 51 W/m² -
1788010157 26.67° C 36% 1189.2 hPa 0 mm - 44 W/m² -
1788009850 26.67° C 35% 1189 hPa 0 mm - 37 W/m² -
1788009548 26.67° C 35% 1188.9 hPa 0 mm - 30 W/m² -
1788009244 26.67° C 34% 1189.1 hPa 0 mm - 24 W/m² -
1788008938 26.67° C 35% 1188.9 hPa 0 mm - 19 W/m² -
1788008634 26.67° C 35% 1188.9 hPa 0 mm - 13 W/m² -
1788008332 27.22° C 34% 1188.9 hPa 0 mm - 8 W/m² -
1788008029 27.22° C 34% 1188.9 hPa 0 mm - 5 W/m² -
1788007729 27.78° C 34% 1188.8 hPa 0 mm - 3 W/m² -
1788007424 27.78° C 33% 1188.7 hPa 0 mm - 1 W/m² -

* Rain latest hour (hover to see other rain measurements)
** Current wind speed in m/s (hover to see current wind gust speed)